Chester, CT

5:02 AM EDT on October 17, 2019 (GMT -0400)
Chester

Weather History for KSNC - August, 2019

Change the Weather History Date:

Thursday, August 8, 2019

  Actual Average (WUND) Record (WUND)
Temperature  
Mean Temperature 76 °F -  
Max Temperature 84 °F - - (-1)
Min Temperature 66 °F - - (-1)
Cooling Degree Days 11    
Growing Degree Days 26 (Base 50)    
Moisture  
Dew Point 67 °F    
Average Humidity 78    
Maximum Humidity 100    
Minimum Humidity 51    
Precipitation  
Precipitation 0.00 in - - ()
Sea Level Pressure  
Sea Level Pressure 29.72 in    
Wind  
Wind Speed 4 mph (SW)    
Max Wind Speed 12 mph    
Max Gust Speed 21 mph    
Visibility 9 miles    
Events      
Averages and records for this station are not official NWS values.
T = Trace of Precipitation, MM = Missing Value Source: NWS Daily Summary

Daily Weather History Graph

Daily Weather History Graph

Search for Another Location

Airport or City:

Astronomy

Aug. 08, 2019 Rise Set
Actual Time 5:51 AM EDT 7:58 PM EDT
Civil Twilight 5:21 AM EDT 8:29 PM EDT
Nautical Twilight 4:43 AM EDT 9:06 PM EDT
Astronomical Twilight 4:02 AM EDT 9:47 PM EDT
Moon 2:31 PM EDT (8/8) 12:12 AM EDT (8/8)
Length of Visible Light 15h 07m
Length of Day
14h 07m
First Quarter, 60% of the Moon is Illuminated
Aug 8
First Quarter
Aug 15
Full
Aug 23
Last Quarter
Aug 30
New
Sep 5
First Quarter

Hourly Weather History & Observations

Time (EDT) Temp. Heat Index Dew Point Humidity Pressure Visibility Wind Dir Wind Speed Gust Speed Precip Events Conditions
12:15 AM 69.8 °F - 69.8 °F 100% 29.77 in 8.0 mi Variable 3.5 mph - N/A   Light Drizzle
12:35 AM 69.8 °F - 69.8 °F 100% 29.77 in 8.0 mi South 4.6 mph - N/A   Light Drizzle
12:55 AM 69.8 °F - 69.8 °F 100% 29.76 in 9.0 mi WSW 4.6 mph - N/A   Overcast
1:15 AM 69.8 °F - 69.8 °F 100% 29.76 in 10.0 mi Calm Calm - N/A   Mostly Cloudy
1:35 AM 69.8 °F - 69.8 °F 100% 29.75 in 9.0 mi West 3.5 mph - N/A   Mostly Cloudy
1:55 AM 69.8 °F - 69.8 °F 100% 29.75 in 9.0 mi Calm Calm - N/A   Mostly Cloudy
2:15 AM 69.8 °F - 69.8 °F 100% 29.75 in 10.0 mi Calm Calm - N/A   Partly Cloudy
2:55 AM 69.8 °F - 69.8 °F 100% 29.75 in 9.0 mi Calm Calm - N/A   Scattered Clouds
3:15 AM 68.0 °F - 68.0 °F 100% 29.75 in 7.0 mi SSW 3.5 mph - N/A   Scattered Clouds
3:35 AM 68.0 °F - 68.0 °F 100% 29.75 in 6.0 mi Calm Calm - N/A   Mostly Cloudy
3:55 AM 68.0 °F - 68.0 °F 100% 29.75 in 7.0 mi WSW 5.8 mph - N/A   Overcast
4:15 AM 68.0 °F - 68.0 °F 100% 29.75 in 5.0 mi Variable 5.8 mph - N/A   Overcast
4:35 AM 68.0 °F - 68.0 °F 100% 29.74 in 3.0 mi Variable 4.6 mph - N/A   Mostly Cloudy
4:55 AM 68.0 °F - 68.0 °F 100% 29.74 in 3.0 mi Calm Calm - N/A   Partly Cloudy
5:15 AM 68.0 °F - 68.0 °F 100% 29.74 in 3.0 mi Calm Calm - N/A   Scattered Clouds
5:35 AM 68.0 °F - 68.0 °F 100% 29.74 in 3.0 mi West 4.6 mph - N/A   Mostly Cloudy
5:55 AM 68.0 °F - 68.0 °F 100% 29.74 in 4.0 mi Calm Calm - N/A   Partly Cloudy
6:15 AM 68.0 °F - 68.0 °F 100% 29.75 in 4.0 mi WSW 4.6 mph - N/A   Clear
6:35 AM 68.0 °F - 68.0 °F 100% 29.73 in 4.0 mi Variable 3.5 mph - N/A   Clear
6:55 AM 68.0 °F - 68.0 °F 100% 29.73 in 4.0 mi Calm Calm - N/A   Clear
7:15 AM 69.8 °F - 68.0 °F 94% 29.73 in 7.0 mi Variable 4.6 mph - N/A   Clear
7:35 AM 69.8 °F - 68.0 °F 94% 29.73 in 7.0 mi Variable 3.5 mph - N/A   Clear
7:55 AM 71.6 °F - 68.0 °F 88% 29.75 in 9.0 mi Variable 3.5 mph - N/A   Mostly Cloudy
8:15 AM 71.6 °F - 68.0 °F 88% 29.76 in 9.0 mi SSW 3.5 mph - N/A   Overcast
8:35 AM 71.6 °F - 68.0 °F 88% 29.75 in 9.0 mi Calm Calm - N/A   Mostly Cloudy
8:55 AM 71.6 °F - 68.0 °F 88% 29.76 in 10.0 mi SSW 5.8 mph - N/A   Mostly Cloudy
9:55 AM 75.2 °F - 68.0 °F 78% 29.75 in 10.0 mi Calm Calm - N/A   Overcast
10:15 AM 75.2 °F - 68.0 °F 78% 29.75 in 10.0 mi Variable 5.8 mph - N/A   Mostly Cloudy
10:35 AM 77.0 °F - 68.0 °F 74% 29.75 in 10.0 mi Variable 5.8 mph - N/A   Mostly Cloudy
10:55 AM 77.0 °F - 68.0 °F 74% 29.75 in 10.0 mi SW 5.8 mph - N/A   Mostly Cloudy
11:15 AM 78.8 °F - 68.0 °F 69% 29.74 in 10.0 mi Variable 6.9 mph 12.7 mph N/A   Partly Cloudy
11:35 AM 78.8 °F - 68.0 °F 69% 29.74 in 10.0 mi SW 8.1 mph - N/A   Clear
11:55 AM 80.6 °F 83.2 °F 68.0 °F 65% 29.74 in 10.0 mi Variable 5.8 mph 12.7 mph N/A   Clear
12:15 PM 80.6 °F 83.2 °F 68.0 °F 65% 29.72 in 10.0 mi SSW 9.2 mph - N/A   Clear
12:35 PM 82.4 °F 85.4 °F 68.0 °F 62% 29.72 in 10.0 mi Variable 6.9 mph - N/A   Clear
12:55 PM 82.4 °F 85.4 °F 68.0 °F 62% 29.72 in 10.0 mi Variable 6.9 mph 12.7 mph N/A   Clear
1:15 PM 82.4 °F 84.6 °F 66.2 °F 58% 29.71 in 10.0 mi Variable 8.1 mph - N/A   Clear
1:35 PM 82.4 °F 84.6 °F 66.2 °F 58% 29.71 in 10.0 mi West 10.4 mph - N/A   Clear
1:55 PM 82.4 °F 84.6 °F 66.2 °F 58% 29.70 in 10.0 mi SW 8.1 mph 16.1 mph N/A   Clear
2:15 PM 84.2 °F 86.6 °F 66.2 °F 55% 29.70 in 10.0 mi SW 8.1 mph 15.0 mph N/A   Clear
2:35 PM 84.2 °F 86.6 °F 66.2 °F 55% 29.69 in 10.0 mi SW 9.2 mph 16.1 mph N/A   Clear
2:55 PM 84.2 °F 86.6 °F 66.2 °F 55% 29.69 in 10.0 mi SSW 8.1 mph 13.8 mph N/A   Clear
3:15 PM 84.2 °F 85.6 °F 64.4 °F 51% 29.69 in 10.0 mi Variable 5.8 mph 16.1 mph N/A   Clear
3:55 PM 84.2 °F 85.6 °F 64.4 °F 51% 29.68 in 10.0 mi SW 9.2 mph 20.7 mph N/A   Clear
4:15 PM 84.2 °F 85.6 °F 64.4 °F 51% 29.67 in 10.0 mi SSW 11.5 mph 17.3 mph N/A   Clear
4:35 PM 84.2 °F 85.6 °F 64.4 °F 51% 29.68 in 10.0 mi Variable 8.1 mph 17.3 mph N/A   Clear
4:55 PM 84.2 °F 85.6 °F 64.4 °F 51% 29.68 in 10.0 mi SW 9.2 mph 18.4 mph N/A   Clear
5:15 PM 84.2 °F 86.6 °F 66.2 °F 55% 29.68 in 10.0 mi SW 9.2 mph 18.4 mph N/A   Clear
5:35 PM 84.2 °F 86.6 °F 66.2 °F 55% 29.68 in 10.0 mi Variable 5.8 mph 15.0 mph N/A   Clear
5:55 PM 84.2 °F 87.3 °F 68.0 °F 58% 29.68 in 10.0 mi Variable 5.8 mph 12.7 mph N/A   Clear
6:15 PM 84.2 °F 87.3 °F 68.0 °F 58% 29.69 in 10.0 mi SW 6.9 mph 12.7 mph N/A   Clear
6:35 PM 82.4 °F 85.4 °F 68.0 °F 62% 29.69 in 10.0 mi Variable 6.9 mph 13.8 mph N/A   Clear
6:55 PM 80.6 °F 83.9 °F 69.8 °F 70% 29.69 in 10.0 mi SW 4.6 mph 11.5 mph N/A   Clear
7:15 PM 78.8 °F - 69.8 °F 74% 29.70 in 10.0 mi SW 6.9 mph - N/A   Clear
7:35 PM 77.0 °F - 69.8 °F 78% 29.71 in 10.0 mi SW 5.8 mph - N/A   Clear
7:55 PM 77.0 °F - 71.6 °F 83% 29.71 in 10.0 mi SSW 5.8 mph - N/A   Clear
8:15 PM 77.0 °F - 59.0 °F 54% 29.72 in 10.0 mi Variable 5.8 mph 18.4 mph N/A   Mostly Cloudy
8:35 PM 77.0 °F - 59.0 °F 54% 29.72 in 10.0 mi Calm Calm - N/A   Scattered Clouds
8:55 PM 75.2 °F - 59.0 °F 57% 29.74 in 10.0 mi Calm Calm - N/A   Light Drizzle
9:15 PM 71.6 °F - 62.6 °F 73% 29.73 in 10.0 mi SW 4.6 mph - N/A   Light Drizzle
9:35 PM 69.8 °F - 62.6 °F 78% 29.72 in 10.0 mi West 5.8 mph - N/A   Partly Cloudy
9:55 PM 69.8 °F - 60.8 °F 73% 29.73 in 10.0 mi Variable 4.6 mph - N/A   Clear
10:15 PM 69.8 °F - 60.8 °F 73% 29.71 in 10.0 mi Calm Calm - N/A   Clear
10:35 PM 68.0 °F - 62.6 °F 83% 29.70 in 10.0 mi Calm Calm - N/A   Clear
10:55 PM 68.0 °F - 62.6 °F 83% 29.71 in 10.0 mi Calm Calm - N/A   Clear
11:15 PM 68.0 °F - 62.6 °F 83% 29.71 in 10.0 mi Calm Calm - N/A   Clear
11:35 PM 68.0 °F - 62.6 °F 83% 29.71 in 10.0 mi Calm Calm - N/A   Clear
11:55 PM 66.2 °F - 62.6 °F 88% 29.71 in 10.0 mi Calm Calm - N/A   Clear